When you browse on this site, cookies collect data to enhance your experience and personalize the content and advertising you see.
Visit our Privacy Policy to learn more. By continuing to use the site, you agree to this use of cookies and data.
  • In Portugal
  • List of Countries
  • For 7 days
  • Water Temperature
  • Weather Map
  • Weather Widgets
  • user-avatar
    Login

    Hourly Weather Kalgoorlie

    Today, 25 May, Monday

    Time Temperature Precipitation Wind Pressure Humidity
    00:00 +18°C° 1.4 mm 16 mps 722 mmHg 27%
    01:00 +15°C° 1.4 mm 16 mps 722 mmHg 41%
    02:00 +13°C° 0 mm 15 mps 722 mmHg 53%
    03:00 +14°C° 0 mm 15 mps 722 mmHg 47%
    04:00 +15°C° 0 mm 14 mps 721 mmHg 40%
    05:00 +17°C° 0 mm 14 mps 721 mmHg 34%
    06:00 +15°C° 0 mm 12 mps 721 mmHg 45%
    07:00 +16°C° 0 mm 11 mps 722 mmHg 55%
    08:00 +16°C° 0 mm 9 mps 722 mmHg 64%
    09:00 +17°C° 0 mm 11 mps 722 mmHg 59%
    10:00 +18°C° 0 mm 12 mps 722 mmHg 55%
    11:00 +19°C° 0 mm 13 mps 722 mmHg 50%
    12:00 +19°C° 0 mm 13 mps 722 mmHg 50%
    13:00 +19°C° 0 mm 13 mps 721 mmHg 50%
    14:00 +18°C° 0 mm 12 mps 721 mmHg 55%
    15:00 +18°C° 0 mm 12 mps 721 mmHg 52%
    16:00 +18°C° 0 mm 11 mps 722 mmHg 49%
    17:00 +17°C° 0 mm 11 mps 722 mmHg 46%
    18:00 +16°C° 0 mm 11 mps 723 mmHg 47%
    19:00 +14°C° 0 mm 12 mps 724 mmHg 48%
    20:00 +13°C° 0 mm 12 mps 725 mmHg 49%
    21:00 +11°C° 0 mm 10 mps 726 mmHg 53%
    22:00 +10°C° 0 mm 9 mps 727 mmHg 58%
    23:00 +9°C° 0 mm 7 mps 728 mmHg 62%

    Tomorrow, 26 May, Tuesday

    Time Temperature Precipitation Wind Pressure Humidity
    00:00 +8°C° 0 mm 7 mps 728 mmHg 64%
    01:00 +8°C° 0 mm 7 mps 728 mmHg 66%
    02:00 +7°C° 0 mm 6 mps 728 mmHg 68%
    03:00 +7°C° 0 mm 6 mps 728 mmHg 70%
    04:00 +5°C° 0 mm 6 mps 729 mmHg 72%
    05:00 +5°C° 0 mm 6 mps 729 mmHg 74%
    06:00 +5°C° 0 mm 6 mps 730 mmHg 72%
    07:00 +5°C° 0 mm 6 mps 730 mmHg 70%
    08:00 +7°C° 0 mm 6 mps 731 mmHg 68%
    09:00 +8°C° 0 mm 7 mps 731 mmHg 60%
    10:00 +10°C° 0 mm 7 mps 731 mmHg 52%
    11:00 +11°C° 0 mm 7 mps 731 mmHg 45%
    12:00 +13°C° 0 mm 6 mps 731 mmHg 42%
    13:00 +14°C° 0 mm 6 mps 731 mmHg 40%
    14:00 +15°C° 0 mm 6 mps 730 mmHg 38%
    15:00 +14°C° 0 mm 5 mps 731 mmHg 40%
    16:00 +13°C° 0 mm 4 mps 731 mmHg 43%
    17:00 +13°C° 0 mm 3 mps 732 mmHg 45%
    18:00 +12°C° 0 mm 3 mps 732 mmHg 49%
    19:00 +11°C° 0 mm 3 mps 733 mmHg 52%
    20:00 +10°C° 0 mm 3 mps 734 mmHg 56%
    21:00 +10°C° 0 mm 3 mps 734 mmHg 59%
    22:00 +9°C° 0 mm 3 mps 734 mmHg 63%
    23:00 +9°C° 0 mm 3 mps 734 mmHg 66%

    Day after tomorrow, 27 May, Wednesday

    Time Temperature Precipitation Wind Pressure Humidity
    00:00 +8°C° 0 mm 2 mps 734 mmHg 68%
    01:00 +8°C° 0 mm 2 mps 734 mmHg 70%
    02:00 +8°C° 0 mm 1 mps 733 mmHg 72%
    03:00 +8°C° 0 mm 1 mps 733 mmHg 74%
    04:00 +7°C° 0 mm 1 mps 734 mmHg 76%
    05:00 +7°C° 0 mm 1 mps 734 mmHg 78%
    06:00 +8°C° 0 mm 1 mps 734 mmHg 73%
    07:00 +9°C° 0 mm 1 mps 734 mmHg 68%
    08:00 +9°C° 0 mm 2 mps 735 mmHg 63%
    09:00 +10°C° 0 mm 2 mps 734 mmHg 57%
    10:00 +13°C° 0 mm 2 mps 734 mmHg 51%
    11:00 +14°C° 0 mm 2 mps 734 mmHg 45%
    12:00 +14°C° 0 mm 3 mps 734 mmHg 43%
    13:00 +16°C° 0 mm 3 mps 733 mmHg 40%
    14:00 +17°C° 0 mm 3 mps 732 mmHg 37%
    15:00 +16°C° 0 mm 2 mps 732 mmHg 39%
    16:00 +15°C° 0 mm 2 mps 732 mmHg 41%
    17:00 +15°C° 0 mm 2 mps 732 mmHg 43%
    18:00 +14°C° 0 mm 2 mps 733 mmHg 46%
    19:00 +13°C° 0 mm 2 mps 733 mmHg 48%
    20:00 +13°C° 0 mm 2 mps 733 mmHg 51%
    21:00 +12°C° 0 mm 2 mps 733 mmHg 54%
    22:00 +10°C° 0 mm 2 mps 733 mmHg 57%
    23:00 +10°C° 0 mm 2 mps 733 mmHg 60%

    28 May, Thursday

    Time Temperature Precipitation Wind Pressure Humidity
    00:00 +10°C° 0 mm 1 mps 733 mmHg 65%
    01:00 +10°C° 0 mm 1 mps 733 mmHg 69%
    02:00 +9°C° 0 mm 1 mps 732 mmHg 74%
    03:00 +9°C° 0 mm 1 mps 733 mmHg 73%
    04:00 +9°C° 0 mm 1 mps 733 mmHg 72%
    05:00 +8°C° 0 mm 2 mps 733 mmHg 72%
    06:00 +9°C° 0 mm 2 mps 733 mmHg 67%
    07:00 +10°C° 0 mm 2 mps 733 mmHg 62%
    08:00 +11°C° 0 mm 3 mps 733 mmHg 58%
    09:00 +13°C° 0 mm 3 mps 733 mmHg 50%
    10:00 +15°C° 0 mm 4 mps 733 mmHg 42%
    11:00 +16°C° 0 mm 5 mps 733 mmHg 34%
    12:00 +17°C° 0 mm 6 mps 732 mmHg 32%
    13:00 +19°C° 0 mm 6 mps 731 mmHg 29%
    14:00 +20°C° 0 mm 6 mps 731 mmHg 27%
    15:00 +19°C° 0 mm 5 mps 730 mmHg 29%
    16:00 +18°C° 0 mm 4 mps 730 mmHg 30%
    17:00 +16°C° 0 mm 3 mps 730 mmHg 32%
    18:00 +16°C° 0 mm 3 mps 730 mmHg 34%
    19:00 +14°C° 0 mm 3 mps 730 mmHg 35%
    20:00 +13°C° 0 mm 3 mps 730 mmHg 37%
    21:00 +13°C° 0 mm 3 mps 730 mmHg 36%
    22:00 +12°C° 0 mm 3 mps 730 mmHg 36%
    23:00 +12°C° 0 mm 3 mps 729 mmHg 36%

    29 May, Friday

    Time Temperature Precipitation Wind Pressure Humidity
    00:00 +12°C° 0 mm 3 mps 729 mmHg 35%
    01:00 +11°C° 0 mm 3 mps 729 mmHg 35%
    02:00 +11°C° 0 mm 3 mps 728 mmHg 35%
    03:00 +11°C° 0 mm 4 mps 728 mmHg 35%
    04:00 +10°C° 0 mm 4 mps 728 mmHg 35%
    05:00 +10°C° 0 mm 4 mps 728 mmHg 35%
    06:00 +11°C° 0 mm 4 mps 728 mmHg 35%
    07:00 +11°C° 0 mm 4 mps 728 mmHg 35%
    08:00 +12°C° 0 mm 5 mps 728 mmHg 35%
    09:00 +14°C° 0 mm 6 mps 728 mmHg 31%
    10:00 +17°C° 0 mm 8 mps 727 mmHg 27%
    11:00 +19°C° 0 mm 9 mps 727 mmHg 24%
    12:00 +21°C° 0 mm 10 mps 726 mmHg 23%
    13:00 +21°C° 0 mm 11 mps 725 mmHg 22%
    14:00 +22°C° 0 mm 12 mps 725 mmHg 21%
    15:00 +21°C° 0 mm 10 mps 724 mmHg 22%
    16:00 +19°C° 0 mm 9 mps 724 mmHg 24%
    17:00 +17°C° 0 mm 7 mps 724 mmHg 26%
    18:00 +17°C° 0 mm 7 mps 724 mmHg 33%
    19:00 +16°C° 0 mm 7 mps 725 mmHg 39%
    20:00 +15°C° 0 mm 7 mps 725 mmHg 45%
    21:00 +14°C° 0.8 mm 7 mps 726 mmHg 56%
    22:00 +12°C° 0.8 mm 7 mps 726 mmHg 66%
    23:00 +11°C° 0.8 mm 7 mps 726 mmHg 76%

    30 May, Saturday

    Time Temperature Precipitation Wind Pressure Humidity
    00:00 +10°C° 0 mm 7 mps 726 mmHg 73%
    01:00 +10°C° 0 mm 7 mps 727 mmHg 70%
    02:00 +10°C° 0 mm 8 mps 727 mmHg 67%
    03:00 +9°C° 0 mm 7 mps 728 mmHg 70%
    04:00 +8°C° 0 mm 7 mps 728 mmHg 73%
    05:00 +6°C° 0 mm 7 mps 728 mmHg 76%
    06:00 +6°C° 0 mm 7 mps 729 mmHg 74%
    07:00 +6°C° 0 mm 7 mps 730 mmHg 73%
    08:00 +6°C° 0 mm 7 mps 731 mmHg 72%
    09:00 +8°C° 0 mm 7 mps 731 mmHg 63%
    10:00 +9°C° 0 mm 6 mps 731 mmHg 55%
    11:00 +11°C° 0 mm 6 mps 732 mmHg 46%
    12:00 +13°C° 0 mm 6 mps 731 mmHg 43%
    13:00 +13°C° 0 mm 5 mps 731 mmHg 39%
    14:00 +14°C° 0 mm 5 mps 731 mmHg 35%
    15:00 +13°C° 0 mm 4 mps 731 mmHg 37%
    16:00 +13°C° 0 mm 4 mps 732 mmHg 39%
    17:00 +12°C° 0 mm 3 mps 732 mmHg 42%
    18:00 +11°C° 0 mm 3 mps 733 mmHg 44%
    19:00 +10°C° 0 mm 3 mps 733 mmHg 47%
    20:00 +10°C° 0 mm 3 mps 734 mmHg 49%
    21:00 +9°C° 0 mm 3 mps 734 mmHg 51%
    22:00 +9°C° 0 mm 3 mps 734 mmHg 53%
    23:00 +8°C° 0 mm 2 mps 735 mmHg 55%
    Show more